{"data":{"norad_id":26554,"epoch":"2026-05-25T02:52:05.351232Z","epoch_age_seconds":74777,"freshness":"FRESH","line1":"1 26554U 00059A   26145.11950638  .00000023  00000+0  00000+0 0  9990","line2":"2 26554   2.0694  81.6505 0003049 333.3139  46.7612  1.00271828 41067","mean_motion":1.00271828,"eccentricity":0.0003049,"inclination_deg":2.0694,"raan_deg":81.6505,"arg_perigee_deg":333.3139,"mean_anomaly_deg":46.7612,"bstar":0,"rev_number":4106,"period_min":1436.0962881818,"perigee_km":35773.726883634,"apogee_km":35799.438929834,"semimajor_km":42164.719906734,"source":"CELESTRAK","updated_at":"2026-05-25T13:38:14.472049Z"}}